SCP
0 0 0 0 0 0 0 0 0 0 0 0 0 0 0 0 0 0 0 0 0 0 0 0 0 0 1 1 1 1 1 1 1 1 1 1 1 1 0 0 0 0 0 0
0 0 0 0 0 0 0 0 0 0 0 0 0 0 0 0 0 0 0 0 0 0 0 0 0 0 1 1 1 1 1 1 1 1 1 1 1 1 0 0 0 0 0 1
0 0 0 0 0 0 0 0 0 0 0 0 0 0 0 0 0 0 0 0 0 0 0 0 0 0 1 1 1 1 1 1 1 1 1 1 1 1 0 0 0 0 1 1
0 0 0 0 0 0 0 0 0 0 0 0 0 0 0 0 0 0 0 0 0 0 0 0 1 1 1 1 1 1 1 1 1 1 1 1 1 1 1 1 0 0 0 0
0 0 0 0 0 0 0 0 0 0 0 0 0 0 0 0 0 0 0 0 0 0 0 1 1 1 1 1 1 1 1 1 0 0 0 1 1 1 1 1 1 1 1 0
0 0 0 0 0 0 0 0 0 0 0 0 0 0 0 0 0 0 0 0 0 0 0 1 1 1 1 1 1 1 0 0 0 0 0 0 0 1 1 1 1 1 1 0
0 0 0 0 0 0 0 0 0 0 0 0 0 0 0 0 0 0 0 0 0 0 0 1 1 1 1 1 0 0 0 0 0 0 0 0 0 0 1 1 1 1 1 1
0 0 0 0 0 0 0 0 0 0 0 0 0 0 0 0 0 0 0 0 0 0 0 0 0 1 0 0 0 0 0 0 0 0 1 1 0 0 1 1 1 1 1 1
0 0 0 0 0 0 0 0 0 0 0 0 0 0 0 0 0 0 0 0 0 0 0 0 0 0 0 0 0 0 0 0 0 0 1 1 1 0 0 1 1 1 1 1
0 0 0 0 0 0 0 0 0 0 0 0 0 0 0 0 0 0 0 0 0 0 0 0 0 0 0 0 0 0 0 0 0 0 0 1 1 1 1 1 1 1 1 1
0 0 0 0 0 0 0 0 0 0 0 0 0 0 0 0 0 0 0 0 0 0 0 0 0 0 0 0 0 0 0 0 0 0 0 0 1 1 1 1 1 1 0 0
0 0 0 0 0 0 0 0 0 0 0 0 0 0 0 0 0 0 0 0 0 0 0 0 0 0 0 0 0 0 0 0 0 0 0 0 1 1 1 1 1 0 0 0
0 0 0 0 0 0 0 0 0 0 0 0 0 0 0 0 0 0 0 0 0 0 0 0 0 0 0 0 0 0 0 0 0 0 0 0 1 1 1 1 1 0 0 0
0 0 0 0 0 0 0 0 0 0 0 0 0 0 0 0 0 0 0 0 0 0 0 0 0 0 0 0 0 0 0 0 0 0 0 0 1 1 1 1 0 0 0 0
0 0 0 0 0 0 0 0 0 0 0 0 0 0 0 0 0 0 0 0 0 0 0 0 0 0 0 0 0 0 0 0 0 0 0 0 0 1 1 0 0 0 0 0
0 0 0 0 0 0 0 0 0 0 0 0 0 0 0 0 0 0 0 0 0 0 0 0 0 0 0 0 0 0 0 0 0 0 0 0 0 0 0 0 0 0 0 0
0 0 0 0 0 0 0 0 0 0 0 0 0 0 0 0 0 0 0 0 0 0 0 0 0 0 0 0 0 0 0 0 0 0 0 0 0 0 0 0 0 0 0 0
0 0 0 0 0 0 0 0 0 0 0 0 0 0 0 0 0 0 0 0 0 0 0 0 0 0 0 0 0 0 0 0 0 0 0 0 0 0 0 0 0 0 0 0
0 0 0 0 0 0 0 0 0 0 0 0 0 0 0 0 0 0 0 0 0 0 0 0 0 0 0 0 0 0 0 0 0 0 0 0 0 0 0 0 0 0 0 0
0 0 0 0 0 0 0 0 0 0 0 0 0 0 0 0 0 0 0 0 0 0 0 0 0 0 0 0 0 0 0 0 0 0 0 0 0 0 0 0 0 0 0 0
0 0 0 0 0 0 0 0 0 0 0 0 0 0 0 0 0 0 0 0 0 0 0 0 0 0 0 0 0 0 0 0 0 0 0 0 0 0 0 0 0 0 0 0
0 0 0 0 0 0 0 0 0 0 0 0 0 0 0 0 0 0 0 0 0 0 0 0 0 0 0 0 0 0 0 0 0 0 0 0 0 0 0 0 0 0 0 0
0 0 0 0 0 0 0 0 0 0 0 0 0 0 0 0 0 0 0 0 0 0 0 0 0 0 0 0 0 0 0 0 0 0 0 0 0 0 0 0 0 0 0 0
0 0 0 0 0 0 0 0 0 0 0 0 0 0 0 0 0 0 0 0 0 0 0 0 0 0 0 0 0 0 0 0 0 0 0 0 0 0 0 0 0 0 0 0
0 0 0 0 0 0 0 0 0 0 0 0 0 0 0 0 0 0 0 0 0 0 0 0 0 0 0 0 0 0 0 0 0 0 0 0 0 0 0 0 0 0 0 0
0 0 0 0 0 0 0 0 0 0 0 0 0 0 0 0 0 0 0 0 0 0 0 0 0 0 0 0 0 0 0 0 0 0 0 0 0 0 0 0 0 0 0 0
Wind_Speed
4 5 3 3 4 6 6 6 6 4 2 3 3 1 2 3 4 5 5 5 4 4 5 3 2 2 1 1 3 4 4 5 4 4 4 3 3 3 3 3 3 4 4 4
6 3 2 3 3 5 6 7 5 1 1 4 2 1 2 2 4 4 5 5 5 5 5 4 3 2 1 2 2 3 4 5 5 4 3 2 2 2 2 2 2 3 4 4
4 4 3 3 3 5 5 6 6 5 4 5 5 4 4 3 4 5 5 5 6 6 6 4 3 2 1 1 2 2 3 4 4 4 3 3 3 3 3 3 3 3 3 3
1 3 2 3 4 7 5 5 6 6 8 4 5 6 3 2 3 5 5 5 6 6 6 5 4 3 2 1 1 2 2 3 4 4 4 4 3 3 2 2 2 3 3 3
1 3 4 4 5 7 6 7 8 9 8 7 4 7 2 3 5 7 6 6 6 6 6 5 4 3 2 2 1 1 1 2 3 3 4 4 3 3 2 2 3 3 3 4
1 2 4 5 4 3 5 6 7 9 8 5 3 7 3 5 7 8 8 7 6 6 6 5 4 3 2 2 1 1 1 1 2 3 3 4 3 3 2 3 3 3 3 3
2 3 3 4 5 1 6 7 5 4 4 2 3 4 4 7 7 8 9 7 6 6 6 6 6 4 3 2 1 1 0 1 2 2 3 3 4 4 4 4 4 3 3 3
3 1 5 5 6 6 5 7 6 7 7 6 3 3 5 6 6 7 8 8 7 7 7 7 6 5 3 3 1 1 0 1 1 2 2 3 3 3 3 3 3 3 3 2
5 2 3 3 5 7 5 5 6 8 8 8 3 2 2 5 8 9 9 9 9 8 8 7 6 5 4 3 1 0 0 0 1 2 2 3 3 3 3 3 4 3 2 2
5 4 1 1 2 3 5 6 5 6 6 7 5 3 6 10 11 11 11 10 9 9 8 7 6 5 4 3 1 1 0 0 1 2 2 2 2 2 3 3 2 2 2 2
5 5 2 1 3 6 4 3 5 4 4 6 6 4 6 9 10 11 10 10 9 9 8 7 6 5 4 3 2 1 0 0 1 1 1 1 1 2 2 2 2 2 2 3
3 5 3 1 2 2 4 5 5 5 4 5 6 3 6 7 9 9 9 9 9 8 8 7 7 7 5 4 3 2 1 0 1 1 1 1 1 1 2 2 2 2 3 3
4 4 4 4 5 2 1 3 4 5 5 5 6 4 5 8 9 9 9 9 8 7 7 7 6 6 5 4 3 2 1 1 1 1 1 1 1 1 1 1 2 2 2 3
4 3 5 5 5 5 5 5 5 6 5 6 6 10 10 11 11 10 9 8 7 6 7 7 6 6 5 4 3 2 2 1 1 1 0 1 1 1 1 1 1 1 2 2
4 3 3 4 4 5 6 6 5 5 6 7 9 11 11 11 11 10 9 8 8 8 8 7 7 6 5 5 4 3 2 2 2 1 0 1 1 1 1 1 1 1 1 1
2 3 4 4 2 4 5 6 6 5 5 7 9 8 9 10 9 9 8 7 8 8 7 7 7 6 6 5 4 3 2 2 1 1 0 1 0 0 1 1 1 1 1 1
2 3 5 4 3 6 4 3 4 5 4 6 8 9 10 10 10 10 9 7 7 7 7 6 6 5 5 4 3 3 2 2 1 1 1 0 0 0 0 1 1 1 1 0
4 4 4 5 5 3 4 4 4 5 4 5 6 8 9 10 9 7 6 7 8 7 6 6 5 5 4 4 3 3 2 2 1 1 1 1 0 0 0 1 0 0 1 1
3 4 4 4 5 3 2 2 4 6 5 4 7 9 9 10 7 4 6 8 8 6 5 5 5 4 3 3 3 3 2 2 1 1 1 1 2 1 0 0 0 1 1 1
3 4 5 4 6 3 3 5 5 6 3 5 7 9 10 9 7 6 8 8 7 6 4 4 5 4 3 3 2 3 3 3 3 2 2 1 2 1 1 1 1 1 1 2
3 4 5 6 5 2 5 4 5 4 5 7 8 9 9 7 7 7 8 7 6 5 4 4 4 3 3 2 2 2 2 2 2 2 2 2 2 2 1 1 1 1 2 2
5 4 3 4 5 1 5 3 4 6 7 8 9 9 8 8 8 7 7 6 5 5 4 4 4 3 3 3 2 2 2 2 1 1 2 2 2 2 1 1 2 2 2 2
4 4 4 4 3 4 2 4 5 6 8 8 8 8 8 8 8 7 6 6 5 5 4 4 4 3 2 2 2 2 2 2 1 1 1 1 2 2 2 2 2 2 3 3
3 2 5 6 4 3 3 4 5 6 7 8 8 8 7 8 8 7 6 5 4 4 4 4 4 3 3 3 2 2 2 2 2 1 1 1 1 2 2 2 2 2 3 3
4 4 6 8 6 5 3 4 7 8 8 8 8 7 7 7 7 7 6 5 4 4 4 4 3 3 4 3 2 2 2 2 2 2 2 2 2 1 2 2 2 3 2 3
5 6 7 5 4 6 7 7 9 9 9 8 8 7 7 7 7 6 5 5 4 4 3 4 4 4 4 3 3 2 2 2 3 2 2 2 2 1 2 1 1 1 1 0
Wind_Direction
217 245 279 334 321 309 298 296 295 316 336 306 304 344 54 50 40 34 32 25 15 3 7 7 349 327 264 213 200 202 204 190 186 186 200 204 209 208 206 205 207 218 220 213
225 238 346 329 306 286 281 286 292 305 338 300 285 288 96 57 32 24 21 11 1 359 4 8 358 356 280 228 223 212 202 192 194 191 202 217 219 213 202 200 198 222 220 214
276 24 10 296 304 301 290 303 315 312 294 241 242 227 149 96 49 28 18 8 1 355 352 354 344 317 293 250 243 243 215 193 193 194 196 190 194 206 198 190 196 210 214 207
280 29 322 305 336 317 302 333 299 280 274 272 274 286 106 73 41 23 7 2 0 356 356 358 349 329 318 302 250 246 221 201 192 194 206 208 218 223 223 217 196 195 201 214
73 21 344 341 352 324 334 316 281 269 271 279 265 281 59 48 5 9 5 2 359 358 4 5 357 343 339 347 30 135 156 176 187 203 212 222 228 224 212 207 189 206 198 210
74 49 1 348 329 322 318 283 260 243 248 262 341 299 352 31 0 353 358 360 1 2 6 5 6 9 2 3 37 80 104 174 205 213 219 221 222 220 212 215 206 211 204 206
182 113 64 345 320 358 328 313 278 256 256 324 21 297 29 33 8 353 351 353 359 3 1 2 1 0 353 351 11 49 116 215 223 220 217 215 219 221 220 223 210 222 220 213
300 76 49 14 349 330 343 326 323 312 319 321 305 325 47 29 6 358 2 3 6 3 358 359 357 348 343 341 349 349 308 256 233 215 213 211 219 232 231 231 240 227 234 228
333 355 68 18 357 330 328 338 328 293 287 286 312 346 105 26 6 2 3 0 360 359 358 356 356 355 348 346 334 317 202 245 233 209 202 204 213 235 241 228 228 229 222 220
325 296 1 346 260 48 350 332 301 303 315 308 314 338 5 358 355 355 354 352 355 354 357 1 2 358 351 344 350 11 29 227 226 205 214 206 211 218 220 222 217 222 225 234
319 287 288 268 345 355 349 345 319 305 314 307 313 357 30 356 350 345 346 347 350 351 357 3 5 4 1 2 17 41 27 253 226 203 196 213 216 211 219 215 209 208 222 235
339 298 298 321 66 348 342 343 328 315 319 297 297 335 47 2 347 347 345 349 352 356 1 7 7 8 3 11 15 27 6 329 272 199 167 189 201 198 204 202 208 215 228 239
332 286 270 193 169 162 349 348 324 301 288 297 298 328 22 351 347 351 346 347 350 356 2 9 12 6 2 8 8 7 346 354 314 254 174 171 203 207 211 210 213 221 232 242
296 293 309 325 339 332 319 324 316 297 297 305 307 314 330 343 343 342 343 343 346 354 4 9 11 5 5 6 3 353 351 2 333 306 166 142 191 212 215 204 197 219 231 237
294 283 303 304 306 295 299 309 306 298 305 302 312 316 331 340 335 335 338 342 349 353 360 3 1 360 0 6 0 355 357 358 339 309 192 149 186 203 194 198 183 186 208 212
305 296 292 278 268 284 285 296 294 292 295 297 305 316 340 334 334 335 341 346 349 350 350 353 352 352 354 359 358 351 355 356 337 325 49 108 138 187 122 138 154 146 154 182
281 281 291 295 311 277 266 307 297 293 305 308 318 331 335 333 336 337 339 345 346 345 344 344 345 346 347 347 345 340 343 350 343 7 60 94 125 33 104 152 117 130 151 190
281 280 279 296 291 281 62 36 343 319 319 328 330 332 334 332 326 331 343 346 342 343 341 341 339 341 339 335 337 331 342 354 16 46 62 49 343 347 178 184 143 140 227 285
259 269 281 287 287 276 124 23 335 310 306 358 343 337 336 332 309 343 7 351 340 338 334 330 328 326 329 330 338 340 354 353 352 9 13 4 333 331 242 226 231 266 277 301
188 236 262 271 289 304 48 24 337 285 261 31 347 334 332 327 317 356 358 341 339 339 334 328 325 326 330 334 340 337 349 352 349 344 334 346 339 332 328 337 275 255 272 289
218 226 255 271 272 283 51 8 308 286 2 350 330 326 325 325 319 321 320 324 331 329 326 322 320 326 334 336 332 330 346 347 341 338 335 333 333 318 297 292 279 282 280 297
280 275 259 268 267 353 56 345 334 339 331 319 319 320 318 314 312 310 311 316 317 316 319 320 319 327 339 337 324 328 345 340 338 342 336 331 318 308 300 271 273 280 283 266
259 307 308 297 330 38 343 330 328 318 311 313 315 315 310 306 311 313 311 310 306 306 310 312 317 324 329 324 309 312 323 323 320 332 323 316 311 300 291 270 261 259 266 282
225 260 265 266 263 301 309 320 321 320 316 314 308 306 304 302 305 308 308 305 301 302 302 302 303 312 317 312 302 303 310 310 296 286 280 271 280 279 274 279 279 287 300 303
288 254 256 261 282 294 279 325 329 326 320 316 315 311 307 304 302 303 303 301 299 297 298 298 297 302 306 309 309 311 307 301 289 286 286 284 282 293 278 276 300 299 324 326
244 253 264 281 319 304 312 319 321 318 316 316 313 314 311 305 304 302 300 298 294 291 290 291 294 297 302 304 305 309 303 291 286 281 284 285 284 278 275 273 242 14 301 295